AirNav   TITAN Aviation Fuels
 
 1246 users online  

72FL Gator Airpark
St Cloud, Florida, USA

GOING TO ST CLOUD?


FAA INFORMATION EFFECTIVE 01 DECEMBER 2022

Location

FAA Identifier: 72FL
Lat/Long: 28-09-27.0560N 081-14-05.2680W
28-09.450933N 081-14.087800W
28.1575156,-81.2347967
(estimated)
Elevation: 68 ft. / 21 m (estimated)
Variation: 02W (1990)
From city: 6 miles SE of ST CLOUD, FL
Time zone: UTC -5 (UTC -4 during Daylight Saving Time)
Zip code: 33837

Airport Operations

Airport use: Private use. Permission required prior to landing
Activation date: 02/1993
Control tower: no
ARTCC: JACKSONVILLE CENTER
FSS: SAINT PETERSBURG FLIGHT SERVICE STATION
Attendance: UNATNDD
Segmented circle: no

Airport Communications

WX AWOS-3PT at ISM (13 nm NW): PHONE 407-847-0533
WX ASOS at MCO (17 nm N): PHONE 407-855-5235

Nearby radio navigation aids

VOR radial/distance  VOR name  Freq  Var
ORLr167/23.7ORLANDO VORTAC112.2000E
MLBr283/31.9MELBOURNE VOR/DME115.8507W

Airport Services

Runway Information

Runway 9/27

Dimensions: 1800 x 200 ft. / 549 x 61 m
Surface: turf
RUNWAY 9  RUNWAY 27
Traffic pattern: leftleft

Airport Ownership and Management from official FAA records

Ownership: Privately-owned
Owner: ALBRITTON AIRSTRIP TRUST
4525 ALBRITTON RD
SAINT CLOUD, FL 34772
Phone 407-892-4546
Manager: ROBERT L. ALBRITTON
4525 ALBRITTON RD
SAINT CLOUD, FL 34772
Phone 407-908-5656

Airport Operational Statistics

Aircraft based on the field: 6
Single engine airplanes: 6
    
Aircraft operations: avg 25/month
100% local general aviation

Additional Remarks

FOR CD CTC ORLANDO APCH AT 407-852-7553.

Instrument Procedures

There are no published instrument procedures at 72FL.

Some nearby airports with instrument procedures:

KISM - Kissimmee Gateway Airport (13 nm NW)
KMCO - Orlando International Airport (17 nm N)
KORL - Executive Airport (24 nm N)
X07 - Lake Wales Municipal Airport (26 nm SW)
KGIF - Winter Haven Regional Airport (28 nm W)
 
Loc | Ops | Rwys | IFR | FBO | Links
Com | Nav | Svcs | Stats | Notes


 
Area around 72FL (Gator Airpark)
 
Road maps at: MapQuest Bing Google
 
Aerial photo
No photo
 
Sectional chart

 
Airport distance calculator
Flying to Gator Airpark? Find the distance to fly.

From to 72FL

Sunrise and sunset
Times for 09-Dec-2022
 Local
(UTC-5)
 Zulu
(UTC)
Morning civil twilight06:4011:40
Sunrise07:0612:06
Sunset17:2822:28
Evening civil twilight17:5422:54

Current date and time
Zulu (UTC)  10-Dec-2022 02:12:58
Local (UTC-5)  09-Dec-2022 21:12:58
 
METAR
KISM 
13nm NW 
100156Z 00000KT 10SM CLR 19/17 A3013 RMK AO2 SLP202 T01890172 PNO $
KMCO 
16nm N 
100153Z 08004KT 10SM FEW040 20/16 A3012 RMK AO2 SLP197 T02000161
KORL 
24nm N 
100153Z 09003KT 10SM CLR 20/16 A3012 RMK AO2 SLP201 T02000161
KX07 
26nm SW 
100155Z AUTO 31004KT 10SM CLR 17/17 A3012 RMK A01
TAF
KISM 
13nm NW 
091722Z 0918/1018 35008KT P6SM FEW035 FM100200 VRB03KT P6SM FEW250 FM100900 VRB03KT 4SM BR FEW020 TEMPO 1009/1013 2SM BR SCT002 FM101300 32003KT P6SM FEW030
KMCO 
16nm N 
092057Z 0921/1024 31006KT P6SM FEW045 FM100000 VRB05KT P6SM FEW050 FM100900 VRB03KT 4SM BR FEW020 TEMPO 1009/1013 2SM BR SCT002 FM101300 33003KT P6SM FEW030 FM101800 34007KT P6SM FEW040
NOTAMs
Click for the latest NOTAMs
NOTAMs are issued by the DoD/FAA and will open in a separate window not controlled by AirNav.

 

 
 

Would you like to see your business listed on this page?

 If your business provides an interesting product or service to pilots, flight crews, aircraft, or users of the Gator Airpark, you should consider listing it here.  To start the listing process, click on the button below
 
Add a business
 

Other Pages about Gator Airpark

Update a link
 
Copyright © AirNav, LLC. All rights reserved. Privacy Policy  Contact